Yankton, SD

12:36 PM CST on November 22, 2017 (GMT -0600)
Gurney Municipal

Weather History for KYKN - December, 2012

Change the Weather History Date:

Wednesday, December 5, 2012

  Actual Average Record
Temperature  
Mean Temperature 40 °F -  
Max Temperature 55 °F 39 °F 58 °F (1956)
Min Temperature 24 °F 17 °F -5 °F (2005)
Degree Days  
Heating Degree Days 26    
Moisture  
Dew Point 21 °F    
Average Humidity 47    
Maximum Humidity 80    
Minimum Humidity 26    
Precipitation  
Precipitation 0.00 in - - ()
Sea Level Pressure  
Sea Level Pressure 29.96 in    
Wind  
Wind Speed 15 mph (SSE)    
Max Wind Speed 30 mph    
Max Gust Speed 41 mph    
Visibility 10 miles    
Events      
Averages and records for this station are not official NWS values.
T = Trace of Precipitation, MM = Missing Value Source: NWS Daily Summary

Daily Weather History Graph

Daily Weather History Graph

Search for Another Location

Airport or City:

Trip Planner

Search our weather history database for the weather conditions in past years. The results will help you decide how hot, cold, wet, or windy it might be!

Date:

Astronomy

Dec. 05, 2012 Rise Set
Actual Time 7:45 AM CST 4:55 PM CST
Civil Twilight 7:13 AM CST 5:27 PM CST
Nautical Twilight 6:38 AM CST 6:02 PM CST
Astronomical Twilight 6:03 AM CST 6:36 PM CST
Moon 11:53 PM CST (12/5) 12:02 PM CST (12/5)
Length of Visible Light 10h 13m
Length of Day
9h 09m
Waning Gibbous, 59% of the Moon is Illuminated
Dec 5
Waning Gibbous
Dec 6
Last Quarter
Dec 13
New
Dec 19
First Quarter
Dec 28
Full

Hourly Weather History & Observations

Time (CST) Temp. Windchill Dew Point Humidity Pressure Visibility Wind Dir Wind Speed Gust Speed Precip Events Conditions
12:15 AM 28.4 °F 19.1 °F 21.2 °F 74% 30.28 in 10.0 mi East 10.4 mph - N/A   Clear
12:35 AM 28.4 °F 18.0 °F 19.4 °F 69% 30.27 in 10.0 mi East 12.7 mph - N/A   Clear
12:55 AM 28.4 °F 18.0 °F 21.2 °F 74% 30.27 in 10.0 mi East 12.7 mph - N/A   Clear
1:15 AM 28.4 °F 18.5 °F 19.4 °F 69% 30.27 in 10.0 mi East 11.5 mph - N/A   Clear
1:55 AM 26.6 °F 17.5 °F 19.4 °F 74% 30.25 in 10.0 mi East 9.2 mph - N/A   Clear
2:15 AM 26.6 °F 16.8 °F 17.6 °F 69% 30.25 in 10.0 mi East 10.4 mph - N/A   Clear
2:35 AM 26.6 °F 16.8 °F 17.6 °F 69% 30.25 in 10.0 mi East 10.4 mph - N/A   Clear
2:55 AM 24.8 °F 14.6 °F 17.6 °F 74% 30.24 in 10.0 mi East 10.4 mph - N/A   Clear
3:15 AM 24.8 °F 15.3 °F 17.6 °F 74% 30.24 in 10.0 mi East 9.2 mph - N/A   Clear
3:35 AM 24.8 °F 14.6 °F 17.6 °F 74% 30.24 in 10.0 mi East 10.4 mph - N/A   Clear
3:55 AM 24.8 °F 14.6 °F 17.6 °F 74% 30.23 in 10.0 mi East 10.4 mph - N/A   Clear
4:15 AM 24.8 °F 15.3 °F 17.6 °F 74% 30.22 in 10.0 mi East 9.2 mph - N/A   Clear
4:35 AM 24.8 °F 14.6 °F 19.4 °F 80% 30.21 in 10.0 mi East 10.4 mph - N/A   Clear
4:55 AM 24.8 °F 14.6 °F 17.6 °F 74% 30.20 in 10.0 mi East 10.4 mph - N/A   Clear
5:15 AM 24.8 °F 15.3 °F 17.6 °F 74% 30.19 in 10.0 mi East 9.2 mph - N/A   Clear
5:35 AM 24.8 °F 14.6 °F 19.4 °F 80% 30.18 in 10.0 mi ESE 10.4 mph - N/A   Clear
5:55 AM 24.8 °F 15.3 °F 19.4 °F 80% 30.17 in 10.0 mi East 9.2 mph - N/A   Clear
6:15 AM 24.8 °F 15.3 °F 17.6 °F 74% 30.16 in 10.0 mi ESE 9.2 mph - N/A   Clear
6:35 AM 24.8 °F 15.3 °F 19.4 °F 80% 30.15 in 10.0 mi East 9.2 mph - N/A   Clear
6:55 AM 26.6 °F 15.2 °F 21.2 °F 80% 30.14 in 10.0 mi ESE 13.8 mph 19.6 mph N/A   Clear
8:35 AM 30.2 °F 20.8 °F 24.8 °F 80% 30.11 in 10.0 mi SE 11.5 mph 16.1 mph N/A   Clear
8:55 AM 32.0 °F 23.0 °F 24.8 °F 75% 30.10 in 10.0 mi SE 11.5 mph - N/A   Clear
9:15 AM 33.8 °F 23.5 °F 24.8 °F 70% 30.09 in 10.0 mi SE 16.1 mph 20.7 mph N/A   Clear
9:35 AM 33.8 °F 23.5 °F 24.8 °F 70% 30.07 in 10.0 mi SE 16.1 mph 19.6 mph N/A   Clear
9:55 AM 35.6 °F 25.9 °F 24.8 °F 65% 30.06 in 10.0 mi SE 16.1 mph - N/A   Clear
10:15 AM 37.4 °F 28.2 °F 24.8 °F 60% 30.06 in 10.0 mi SE 16.1 mph - N/A   Clear
10:35 AM 39.2 °F 30.8 °F 24.8 °F 56% 30.05 in 10.0 mi SE 15.0 mph - N/A   Clear
10:55 AM 41.0 °F 32.2 °F 24.8 °F 53% 30.03 in 10.0 mi SSE 18.4 mph - N/A   Clear
11:15 AM 42.8 °F 35.1 °F 24.8 °F 49% 30.02 in 10.0 mi SE 16.1 mph - N/A   Clear
11:35 AM 44.6 °F 37.2 °F 24.8 °F 46% 30.00 in 10.0 mi SSE 17.3 mph - N/A   Clear
11:55 AM 46.4 °F 39.8 °F 24.8 °F 43% 29.97 in 10.0 mi SE 16.1 mph - N/A   Clear
12:15 PM 50.0 °F - 24.8 °F 37% 29.95 in 10.0 mi SSE 20.7 mph - N/A   Clear
12:35 PM 51.8 °F - 23.0 °F 33% 29.91 in 10.0 mi South 26.5 mph 33.4 mph N/A   Clear
12:55 PM 53.6 °F - 21.2 °F 28% 29.89 in 10.0 mi South 26.5 mph 36.8 mph N/A   Clear
1:15 PM 55.4 °F - 21.2 °F 26% 29.88 in 10.0 mi South 27.6 mph 38.0 mph N/A   Clear
1:35 PM 55.4 °F - 21.2 °F 26% 29.86 in 10.0 mi South 27.6 mph 41.4 mph N/A   Clear
1:55 PM 55.4 °F - 21.2 °F 26% 29.86 in 10.0 mi South 26.5 mph 35.7 mph N/A   Clear
2:15 PM 55.4 °F - 21.2 °F 26% 29.85 in 10.0 mi South 26.5 mph 36.8 mph N/A   Clear
2:35 PM 55.4 °F - 21.2 °F 26% 29.84 in 10.0 mi South 21.9 mph 33.4 mph N/A   Clear
2:55 PM 55.4 °F - 21.2 °F 26% 29.82 in 10.0 mi South 27.6 mph 36.8 mph N/A   Clear
3:15 PM 55.4 °F - 21.2 °F 26% 29.82 in 10.0 mi South 29.9 mph 35.7 mph N/A   Clear
3:35 PM 55.4 °F - 21.2 °F 26% 29.82 in 10.0 mi South 24.2 mph 33.4 mph N/A   Clear
3:55 PM 55.4 °F - 21.2 °F 26% 29.81 in 10.0 mi South 19.6 mph - N/A   Clear
4:15 PM 55.4 °F - 21.2 °F 26% 29.80 in 10.0 mi South 25.3 mph 28.8 mph N/A   Clear
4:35 PM 55.4 °F - 21.2 °F 26% 29.78 in 10.0 mi SSE 24.2 mph 29.9 mph N/A   Clear
4:55 PM 55.4 °F - 23.0 °F 29% 29.77 in 10.0 mi South 23.0 mph 31.1 mph N/A   Clear
5:15 PM 55.4 °F - 23.0 °F 29% 29.77 in 10.0 mi South 23.0 mph 34.5 mph N/A   Clear
5:35 PM 55.4 °F - 23.0 °F 29% 29.77 in 10.0 mi South 20.7 mph - N/A   Clear
5:55 PM 55.4 °F - 23.0 °F 29% 29.78 in 10.0 mi South 13.8 mph 27.6 mph N/A   Clear
6:15 PM 55.4 °F - 23.0 °F 29% 29.78 in 10.0 mi SSE 15.0 mph - N/A   Clear
6:35 PM 55.4 °F - 23.0 °F 29% 29.77 in 10.0 mi South 17.3 mph 25.3 mph N/A   Clear
6:55 PM 55.4 °F - 23.0 °F 29% 29.77 in 10.0 mi South 17.3 mph 24.2 mph N/A   Clear
7:15 PM 55.4 °F - 23.0 °F 29% 29.77 in 10.0 mi South 19.6 mph 28.8 mph N/A   Clear
7:35 PM 55.4 °F - 21.2 °F 26% 29.76 in 10.0 mi South 19.6 mph 27.6 mph N/A   Clear
7:55 PM 55.4 °F - 23.0 °F 29% 29.75 in 10.0 mi South 24.2 mph 29.9 mph N/A   Clear
8:15 PM 55.4 °F - 23.0 °F 29% 29.75 in 10.0 mi South 18.4 mph 24.2 mph N/A   Clear
8:35 PM 55.4 °F - 23.0 °F 29% 29.75 in 10.0 mi South 17.3 mph - N/A   Clear
8:55 PM 53.6 °F - 23.0 °F 30% 29.75 in 10.0 mi South 17.3 mph 23.0 mph N/A   Clear
9:15 PM 53.6 °F - 21.2 °F 28% 29.75 in 10.0 mi South 16.1 mph 27.6 mph N/A   Clear
9:35 PM 53.6 °F - 21.2 °F 28% 29.73 in 10.0 mi South 16.1 mph 28.8 mph N/A   Clear
9:55 PM 53.6 °F - 21.2 °F 28% 29.73 in 10.0 mi South 20.7 mph 27.6 mph N/A   Clear
10:15 PM 53.6 °F - 21.2 °F 28% 29.73 in 10.0 mi SSW 21.9 mph 29.9 mph N/A   Partly Cloudy
10:35 PM 53.6 °F - 21.2 °F 28% 29.73 in 10.0 mi South 19.6 mph 34.5 mph N/A   Clear
10:55 PM 53.6 °F - 21.2 °F 28% 29.73 in 10.0 mi South 21.9 mph 29.9 mph N/A   Clear
11:15 PM 53.6 °F - 21.2 °F 28% 29.73 in 10.0 mi South 24.2 mph 31.1 mph N/A   Clear
11:35 PM 53.6 °F - 23.0 °F 30% 29.73 in 10.0 mi SSW 18.4 mph 32.2 mph N/A   Clear
11:55 PM 53.6 °F - 21.2 °F 28% 29.73 in 10.0 mi SSW 20.7 mph 31.1 mph N/A   Clear